Home   Weather   Rustenburg   Past weeks

Flag for South Africa Past Weather in Rustenburg, South Africa — Yesterday and Last 2 Weeks

Now
59 °F

Clear.


Feels Like: 58 °F
Forecast: 49 / 85 °F
Wind: 7 mph from West

Location: Lanseria Civ / Mil

Current Time: Sep 28, 2016 at 5:35:30 AM

Latest Report: Sep 28, 2016 at 5:00 AM


Visibility: 10 mi

Pressure: 30.15 "Hg (26.26 "Hg at 1166m altitude)

Humidity: 72%

Dew Point: 50 °F

Location of RustenburgLocation

Past Weather in Rustenburg — Graph

°F

Rustenburg Temperature Yesterday

Maximum temperature yesterday: 82 °F (at 2:52 PM)
Minimum temperature yesterday: 59 °F (at 5:00 AM)
Average temperature yesterday: 72 °F

High & Low Weather Summary for the Past Weeks

 TemperatureHumidityPressure
High88 °F (Sep 23, 3:00 PM)100% (Sep 20, 6:00 AM)30.48 "Hg (Sep 20, 6:00 AM)
Low46 °F (Sep 18, 8:00 PM)10% (Sep 23, 5:00 PM)29.98 "Hg (Sep 16, 3:00 PM)
Average67 °F46%30.20 "Hg
* Reported Sep 13 4:00 AM — Sep 28 4:00 AM, Rustenburg, Weather by CustomWeather, © 2016

Note: Actual official high and low records may vary slightly from our data, if they occured in-between our weather recording intervals... More about our weather records

Advertising

Rustenburg Weather History for the Previous 24 Hours

Scroll right to see more
 ConditionsComfort  
Time TempWeatherWind HumidityBarometerVisibility
4:00 AM
Wed, Sep 28
61 °FCool.3 mph68%30.12 "HgN/A
3:00 AM61 °FCool.5 mph68%30.12 "HgN/A
2:00 AM63 °FMild.9 mph64%30.12 "HgN/A
10:00 PM
Tue, Sep 27
68 °FClear.7 mph56%30.12 "Hg10 mi
9:00 PM68 °FClear.15 mph53%30.12 "Hg10 mi
8:00 PM73 °FThunderstorms. Passing clouds.6 mph41%30.12 "HgN/A
7:00 PM75 °FClear.16 mph36%30.09 "Hg10 mi
6:00 PM79 °FSunny.15 mph30%30.07 "Hg10 mi
5:00 PM81 °FSunny.16 mph30%30.04 "Hg10 mi
4:00 PM82 °FPassing clouds.17 mph26%30.04 "HgN/A
3:00 PM82 °FSunny.14 mph30%30.04 "Hg10 mi
2:52 PM82 °FSunny.14 mph30%30.04 "Hg10 mi
2:00 PM79 °FSunny.18 mph32%30.07 "Hg10 mi
1:00 PM79 °FPassing clouds.16 mph34%30.09 "HgN/A
12:00 PM77 °FPassing clouds.15 mph34%30.12 "HgN/A
11:00 AM73 °FPassing clouds.9 mph47%30.15 "HgN/A
10:00 AM72 °FPassing clouds.10 mph50%30.18 "HgN/A
9:00 AM68 °FPassing clouds.8 mph56%30.21 "HgN/A
8:00 AM63 °FSunny.2 mph68%30.21 "Hg10 mi
7:00 AM59 °FSunny.5 mph77%30.21 "Hg10 mi
6:00 AM59 °FPassing clouds.3 mph77%30.18 "HgN/A
5:00 AM59 °FClear.6 mph77%30.18 "Hg10 mi
Weather by CustomWeather, © 2016

See weather overviewHow to use our weather pages